Hourly Data Report for October 27, 2015

All times are specified in Local Standard Time (LST). Add 1 hour to adjust for Daylight Saving Time where and when it is observed.

KUGAARUK CLIMATE
NUNAVUT

68°32'15.060" N
89°47'47.020" W
15.80 m
2303094
71407
NBB

Download Data

Hourly Data (October 2015)
Hourly Data Report for October 27, 2015
Temp Definition
°C
Dew Point Temp Definition
°C
Rel Hum Definition
%
Wind Dir Definition
10's deg

Wind Spd Definition
km/h
Visibility Definition
km
Stn Press Definition
kPa
Hmdx Definition


Wind Chill Definition


Weather Definition


TIME
00:00 -14.9 -17.9 78 26 26   100.29   -25 LegendNANA
01:00 -15.0 -18.1 78 27 32   100.30   -26 LegendNANA
02:00 -14.8 -18.6 73 27 28   100.40   -25 LegendNANA
03:00 -15.5 -18.7 76 26 21   100.43   -25 LegendNANA
04:00 -15.8 -19.0 76 26 30   100.44   -27 LegendNANA
05:00 -16.6 -19.8 77 24 18   100.54   -26 LegendNANA
06:00 -16.7 -20.0 76 25 20   100.57   -26 LegendNANA
07:00 -16.9 -20.4 74 23 19   100.60   -26 LegendNANA
08:00 -16.2 -19.9 73 27 27   100.59   -27 LegendNANA
09:00 -16.1 -20.0 72 27 29   100.59   -27 LegendNANA
10:00 -15.8 -19.9 71 26 29   100.63   -27 LegendNANA
11:00 -15.9 -20.3 69 24 15   100.70   -24 LegendNANA
12:00 -15.3 -19.7 69 26 17   100.74   -24 LegendNANA
13:00 -16.0 -20.1 70 24 19   100.77   -25 LegendNANA
14:00 -16.0 -20.1 71 25 20   100.84   -25 LegendNANA
15:00 -16.5 -19.6 77 27 18   100.85   -26 LegendNANA
16:00 -16.7 -19.7 77 27 15   100.89   -25 LegendNANA
17:00 -16.8 -19.7 78 26 17   100.85   -26 LegendNANA
18:00 -17.2 -20.1 78 24 19   100.89   -27 LegendNANA
19:00 -17.2 -20.0 79 26 24   100.90   -28 LegendNANA
20:00 -16.5 -19.0 81 26 29   100.87   -28 LegendNANA
21:00 -16.5 -19.3 79 25 19   100.90   -26 LegendNANA
22:00 -16.9 -19.5 80 25 26   100.92   -28 LegendNANA
23:00 -16.7 -19.2 81 23 10   100.96   -23 LegendNANA

Notes on Data Quality.

Legend

  • E = Estimated
  • M = Missing
  • NA = Not Available
  • ‡ = Partner data that is not subject to review by the National Climate Archives
Date modified: